Weather History for Wahoo, NE

Change the Weather History Date:

Thursday, December 5, 2013

  Actual Average Record
Temperature  
Mean Temperature 13 °F -  
Max Temperature 18 °F 41 °F 64 °F (1963)
Min Temperature 8 °F 20 °F 5 °F (1972)
Degree Days  
Heating Degree Days 52    
Moisture  
Dew Point 1 °F    
Average Humidity 58    
Maximum Humidity 71    
Minimum Humidity 43    
Precipitation  
Precipitation 0.00 in - - ()
Sea Level Pressure  
Sea Level Pressure 30.28 in    
Wind  
Wind Speed 15 mph (NW)    
Max Wind Speed 24 mph    
Max Gust Speed 31 mph    
Visibility 10 miles    
Events      
Averages and records for this station are not official NWS values.
T = Trace of Precipitation, MM = Missing Value Source: NWS Daily Summary

Daily Weather History Graph

Daily Weather History Graph

Search for Another Location

Airport:

Trip Planner

Search our weather history database for the weather conditions in past years. The results will help you decide how hot, cold, wet, or windy it might be!

Date:

Astronomy

Dec. 05, 2013 Rise Set
Actual Time 7:36 AM CST 4:57 PM CST
Civil Twilight 7:05 AM CST 5:28 PM CST
Nautical Twilight 6:31 AM CST 6:02 PM CST
Astronomical Twilight 5:58 AM CST 6:36 PM CST
Moon 9:57 AM CST (12/5) 8:20 PM CST (12/5)
Length of Visible Light 10h 22m
Length of Day
9h 20m
Waxing Crescent, 11% of the Moon is Illuminated
Dec 5
Waxing Crescent
Dec 9
First Quarter
Dec 17
Full
Dec 25
Last Quarter
Jan 1
New

Hourly Weather History & Observations

Time (CST) Temp. Windchill Dew Point Humidity Pressure Visibility Wind Dir Wind Speed Gust Speed Precip Events Conditions
12:15 AM 18.3 °F 1.8 °F 8.8 °F 66% 30.06 in 10.0 mi WNW 20.7 mph 28.8 mph N/A   Overcast
12:35 AM 16.9 °F -1.3 °F 7.5 °F 67% 30.09 in 10.0 mi WNW 24.2 mph 28.8 mph N/A   Scattered Clouds
12:55 AM 15.8 °F -1.5 °F 6.6 °F 67% 30.10 in 10.0 mi WNW 20.7 mph 27.6 mph N/A   Clear
1:15 AM 15.3 °F -0.9 °F 5.7 °F 66% 30.10 in 10.0 mi NW 17.3 mph 31.1 mph N/A   Clear
1:35 AM 14.5 °F -1.8 °F 5.0 °F 66% 30.12 in 10.0 mi NW 17.3 mph 27.6 mph N/A   Clear
1:55 AM 14.0 °F -4.7 °F 4.8 °F 67% 30.13 in 10.0 mi NW 23.0 mph 27.6 mph N/A   Clear
2:15 AM 13.1 °F -4.2 °F 4.1 °F 67% 30.15 in 10.0 mi NW 18.4 mph 23.0 mph N/A   Clear
2:35 AM 12.7 °F -3.6 °F 4.1 °F 68% 30.16 in 10.0 mi NW 16.1 mph 23.0 mph N/A   Clear
2:55 AM 12.6 °F -6.2 °F 3.4 °F 67% 30.17 in 10.0 mi WNW 21.9 mph 31.1 mph N/A   Clear
3:15 AM 12.0 °F -4.0 °F 3.0 °F 67% 30.18 in 10.0 mi NW 15.0 mph 27.6 mph N/A   Clear
3:35 AM 11.8 °F -3.0 °F 2.8 °F 67% 30.19 in 10.0 mi NW 12.7 mph 24.2 mph N/A   Clear
3:55 AM 11.3 °F -4.3 °F 3.0 °F 69% 30.19 in 10.0 mi NW 13.8 mph - N/A   Clear
4:15 AM 11.1 °F -3.9 °F 3.0 °F 70% 30.19 in 10.0 mi WNW 12.7 mph - N/A   Clear
4:35 AM 10.8 °F -5.0 °F 2.7 °F 70% 30.19 in 10.0 mi NW 13.8 mph - N/A   Clear
4:55 AM 10.4 °F -6.0 °F 2.5 °F 70% 30.20 in 10.0 mi WNW 15.0 mph 19.6 mph N/A   Clear
5:15 AM 10.4 °F -6.0 °F 2.7 °F 71% 30.20 in 10.0 mi NW 15.0 mph 23.0 mph N/A   Clear
5:35 AM 10.2 °F -6.3 °F 2.3 °F 70% 30.20 in 10.0 mi NW 15.0 mph - N/A   Clear
5:55 AM 9.5 °F -5.2 °F 1.8 °F 71% 30.21 in 10.0 mi NW 11.5 mph 18.4 mph N/A   Clear
6:15 AM 9.5 °F -5.2 °F 1.4 °F 70% 30.21 in 10.0 mi NW 11.5 mph - N/A   Clear
6:35 AM 9.5 °F -5.2 °F 1.4 °F 70% 30.23 in 10.0 mi NW 11.5 mph 17.3 mph N/A   Clear
6:55 AM 9.3 °F -4.6 °F 1.2 °F 70% 30.24 in 10.0 mi NW 10.4 mph - N/A   Clear
7:15 AM 9.1 °F -4.9 °F 1.2 °F 70% 30.24 in 10.0 mi NW 10.4 mph - N/A   Clear
7:35 AM 9.0 °F -5.1 °F 1.0 °F 70% 30.25 in 10.0 mi WNW 10.4 mph - N/A   Clear
7:55 AM 8.8 °F -3.5 °F 0.9 °F 70% 30.26 in 10.0 mi NW 8.1 mph - N/A   Clear
8:15 AM 9.3 °F -6.1 °F 1.0 °F 69% 30.26 in 10.0 mi NW 12.7 mph - N/A   Clear
8:35 AM 9.9 °F -7.9 °F 0.7 °F 66% 30.27 in 10.0 mi NW 17.3 mph 24.2 mph N/A   Clear
8:55 AM 10.0 °F -7.1 °F 0.3 °F 65% 30.26 in 10.0 mi NW 16.1 mph - N/A   Clear
9:15 AM 10.8 °F -3.6 °F 0.5 °F 63% 30.28 in 10.0 mi NW 11.5 mph - N/A   Clear
9:35 AM 10.6 °F -5.2 °F -0.2 °F 62% 30.29 in 10.0 mi NW 13.8 mph - N/A   Clear
9:55 AM 12.2 °F -5.3 °F 0.7 °F 60% 30.30 in 10.0 mi NW 18.4 mph - N/A   Clear
10:15 AM 12.9 °F -3.4 °F 1.0 °F 59% 30.31 in 10.0 mi NW 16.1 mph - N/A   Clear
10:35 AM 14.2 °F -1.2 °F 1.2 °F 56% 30.31 in 10.0 mi NNW 15.0 mph 21.9 mph N/A   Clear
10:55 AM 14.5 °F -0.2 °F 0.9 °F 55% 30.32 in 10.0 mi NNW 13.8 mph - N/A   Clear
11:15 AM 15.1 °F 1.8 °F 1.2 °F 54% 30.32 in 10.0 mi NNW 11.5 mph - N/A   Clear
11:35 AM 15.4 °F 0.4 °F 0.9 °F 53% 30.31 in 10.0 mi NW 15.0 mph - N/A   Clear
11:55 AM 15.6 °F 0.6 °F 0.9 °F 52% 30.30 in 10.0 mi NW 15.0 mph 19.6 mph N/A   Clear
12:15 PM 15.8 °F 1.4 °F 0.5 °F 51% 30.30 in 10.0 mi NW 13.8 mph 19.6 mph N/A   Clear
12:35 PM 16.0 °F 1.7 °F 0.5 °F 51% 30.29 in 10.0 mi NNW 13.8 mph 17.3 mph N/A   Clear
12:55 PM 16.9 °F 3.4 °F 0.9 °F 50% 30.29 in 10.0 mi NNW 12.7 mph - N/A   Clear
1:15 PM 17.4 °F 4.7 °F 0.3 °F 47% 30.29 in 10.0 mi NW 11.5 mph - N/A   Clear
1:35 PM 18.1 °F 5.0 °F 0.3 °F 46% 30.28 in 10.0 mi NW 12.7 mph 20.7 mph N/A   Clear
1:55 PM 18.7 °F 5.7 °F 0.1 °F 44% 30.27 in 10.0 mi NNW 12.7 mph - N/A   Clear
2:15 PM 18.5 °F 6.1 °F 0.1 °F 45% 30.26 in 10.0 mi NNW 11.5 mph 17.3 mph N/A   Clear
2:35 PM 18.3 °F 5.9 °F -0.0 °F 45% 30.26 in 10.0 mi NW 11.5 mph - N/A   Clear
2:55 PM 18.3 °F 4.1 °F -0.9 °F 43% 30.26 in 10.0 mi NW 15.0 mph 20.7 mph N/A   Clear
3:15 PM 18.0 °F 4.8 °F -0.8 °F 44% 30.27 in 10.0 mi NNW 12.7 mph - N/A   Clear
3:35 PM 18.0 °F 4.8 °F -1.1 °F 43% 30.27 in 10.0 mi NW 12.7 mph - N/A   Clear
3:55 PM 17.8 °F 5.2 °F -1.5 °F 43% 30.29 in 10.0 mi NNW 11.5 mph - N/A   Clear
4:15 PM 17.4 °F 3.5 °F -1.8 °F 43% 30.30 in 10.0 mi NNW 13.8 mph - N/A   Clear
4:35 PM 16.9 °F 4.1 °F -1.7 °F 44% 30.32 in 10.0 mi NW 11.5 mph - N/A   Clear
4:55 PM 15.6 °F 5.9 °F -2.2 °F 45% 30.33 in 10.0 mi NW 6.9 mph - N/A   Clear
5:15 PM 14.5 °F 5.7 °F -2.2 °F 48% 30.34 in 10.0 mi NNW 5.8 mph - N/A   Clear
5:35 PM 13.1 °F 2.8 °F -1.5 °F 52% 30.34 in 10.0 mi NW 6.9 mph - N/A   Clear
5:55 PM 13.6 °F 3.5 °F -0.9 °F 52% 30.35 in 10.0 mi NNW 6.9 mph - N/A   Clear
6:15 PM 13.1 °F 0.9 °F -0.8 °F 54% 30.36 in 10.0 mi NNW 9.2 mph - N/A   Clear
6:35 PM 13.1 °F 0.9 °F -0.9 °F 54% 30.36 in 10.0 mi NNW 9.2 mph - N/A   Clear
6:55 PM 13.1 °F -0.7 °F -0.6 °F 54% 30.36 in 10.0 mi NNW 11.5 mph - N/A   Clear
7:15 PM 13.1 °F 0.9 °F -1.3 °F 53% 30.36 in 10.0 mi NNW 9.2 mph - N/A   Clear
7:35 PM 13.1 °F -1.4 °F -2.0 °F 51% 30.38 in 10.0 mi NW 12.7 mph 18.4 mph N/A   Clear
7:55 PM 12.6 °F -0.6 °F -2.2 °F 52% 30.37 in 10.0 mi NNW 10.4 mph - N/A   Clear
8:15 PM 12.0 °F -2.7 °F -2.0 °F 53% 30.37 in 10.0 mi NNW 12.7 mph - N/A   Clear
8:35 PM 11.3 °F -1.3 °F -2.2 °F 55% 30.39 in 10.0 mi NNW 9.2 mph - N/A   Clear
8:55 PM 10.9 °F -3.4 °F -2.2 °F 56% 30.40 in 10.0 mi NNW 11.5 mph - N/A   Clear
9:15 PM 10.8 °F -2.8 °F -2.2 °F 56% 30.39 in 10.0 mi NNW 10.4 mph - N/A   Clear
9:35 PM 10.4 °F -2.4 °F -2.2 °F 57% 30.41 in 10.0 mi NW 9.2 mph - N/A   Scattered Clouds
9:55 PM 10.8 °F -4.3 °F -2.2 °F 56% 30.41 in 10.0 mi NW 12.7 mph - N/A   Mostly Cloudy
10:15 PM 10.9 °F -3.4 °F -2.6 °F 55% 30.41 in 10.0 mi NNW 11.5 mph 17.3 mph N/A   Overcast
10:35 PM 11.1 °F -3.9 °F -3.3 °F 52% 30.42 in 10.0 mi NNW 12.7 mph 19.6 mph N/A   Overcast
10:55 PM 11.1 °F -3.9 °F -3.3 °F 52% 30.42 in 10.0 mi NNW 12.7 mph - N/A   Overcast
11:15 PM 11.1 °F -3.9 °F -3.5 °F 52% 30.43 in 10.0 mi NNW 12.7 mph - N/A   Overcast
11:35 PM 11.1 °F -4.5 °F -4.0 °F 51% 30.43 in 10.0 mi NNW 13.8 mph - N/A   Overcast
11:55 PM 10.8 °F -5.6 °F -4.0 °F 52% 30.43 in 10.0 mi NNW 15.0 mph - N/A   Mostly Cloudy